Member area
Imprimable
Challenges > Delhalle - Dinant, 25/08/2013, BEL - La Descente de la Lesse
List of reports > Top Lesse - 21.9km - Result
Search: Page: [1]
195 Entries
 
Complains are not accepted anymore. Results are final.
PlaceNrNameAgeNATLeagueTeamRealTimeTkmMoy.ScrPtsCity
1.1598NEMETH Christian42BELCABWESM1:23:071:23:083:48 15.8191083MONCEAU SUR SAMBRE
2.4VANDERBECK Yves45BELRIWARONVAU1:23:081:23:093:48 15.80101083MALONNE
3.1546MLECZKO Olivier Boris42BELJOGGPLUS1:24:441:24:453:53 15.50131061NAMUR
4.238VAN DEN ABEELE Sebastian43BELACLO1:25:151:25:173:54 15.41151054CARNIERES
5.342LOMBART Frederic46BELOCANGAG1:25:401:25:423:55 15.33161048GEMBLOUX
6.1515AZEVEDO Jose49LUXRCBRCB1:27:101:27:143:59 15.07221027MONDERCANGE
7.1579QUESTIAUX Bernard49BEL1:27:221:27:244:00 15.04231024
8.1091DEBAETS Jean-Marc48BELROBA1:27:421:27:444:01 14.98241020BAAL
9.1121DENIS Patrick47BELARCH1:27:591:28:014:02 14.93261015BERTRIX
10.435DUVIVIER Dany45BELBAC1:30:291:30:314:08 14.5232983TOURNAI
11.1281LOPEZ-NAVA Lopez-Nava42BELSER-ATHL1:30:301:30:364:09 14.5033982GRIVEGNÉE
12.1099DE GRANDE Christophe41BELACWAC WAASLAND1:31:031:31:054:10 14.4337974SINAAI
13.1458VANDEVENNE Geert43BELGEERT VANDEVENNE1:32:021:32:094:13 14.2640962HOEILAART
14.376CAPELLE Christian46BELRCBRCB1:32:141:32:164:13 14.2441959DURNAL
15.1530VAN MALLEGHEM Bernard49BELPRFM1:33:391:34:094:18 13.9648940
16.811GIGOT Jacques46BELCEPAL1:34:071:34:124:19 13.9549934ANDERLECHT
17.975LEONARD Marc44BELFCHA1:35:231:35:354:22 13.7556917VILLERS-LE-PEUPLIER
18.1232JOUAN Bernard48BEL1:36:151:36:214:24 13.6457907THYNES
19.1016BAUDOIN Philippe43BEL1:36:211:36:224:25 13.6458905MIÉCRET
20.1134DIANCOURT Mickael43FRAGRAC1:36:581:37:114:27 13.5262897LAVAL MORENCY
21.1007VANDEPUTTE Pascal44BEL1:37:241:37:314:28 13.4764891BE-4900 SPA
22.477GRANDMONT Jean Noel46BELARCHARCH CINEY1:37:311:37:354:28 13.4765890NASSOGNE
23.884KOZYREFF Dimitri40BEL1:37:331:37:424:28 13.4566889CHAUMONT GISTOUX
24.1309MASSART Jean-Christophe43BELSMACRCNAMUR1:38:291:38:344:31 13.3372876PROFONDEVILLE
25.1419STAS Johan45BELADD1:38:511:38:564:32 13.2875871SINT-TRUIDEN
26.1150ESTEBEZ André40BELSER-ATHL1:38:511:38:574:32 13.2876870BEYNE- HEUSAY
27.374REGNIER Didier46BELLES ZAFTERS1:40:361:40:424:36 13.0585848DISON
28.321ORVAL Alain44BEL1:40:471:40:514:37 13.0386845CINEY
29.1550SERGYSELS Pascal45BEL1:40:481:40:534:37 13.0387845
30.78DUTRIEUX Fernand42BEL1:41:251:41:274:38 12.9590837BAUDOUR
31.1012BAIJOT Eric47BELARCH1:41:221:41:294:39 12.9592837DINANT
32.1337NENNEN Alain46BEL1:41:511:41:524:40 12.9096830ONHAYE
33.21TOUSSAINT Frank47BELSC BUTGENBACH1:41:581:42:034:40 12.8897829SOURBRODT
34.1371PIRSOUL Denis46BELARCH1:42:061:42:104:40 12.86102825HAVELANGE
35.236DUYCK Xavier46BEL1:43:241:43:354:44 12.69110808SPY
36.1229JOLY Jean-Marie46BEL1:43:331:43:584:45 12.64111806SORÉE
37.1604GOFFLOT Frederic43BEL1:43:351:44:014:45 12.63112805BLEID
38.1595VERWACHT Quentin40BELBIGORNEAUX1:43:551:44:064:46 12.62113801
39.1365PIERREUX Christophe42BEL1:44:381:44:464:47 12.54118792KRAAINEM
40.1363PIERARD Michel43BEL1:44:581:45:074:48 12.50120788CHASTRE
41.1155FABRE Michaël42BELHUY AT1:45:011:45:084:48 12.50121787HUY
42.1548HEYDEN Christian49BEL1:45:131:45:224:49 12.47125783
43.988FANCHINI Yves44BEL1:45:311:45:364:50 12.44131777SAINT MARTIN
44.1506MASURE Alexandre43BELRCNAMUR1:45:511:46:124:51 12.37135772
45.1541FIASSE Thibault40BELFIASS'ENERGIE1:46:121:46:174:52 12.36137768NATOYE
46.1372PLASMAN Christian49BELJOGGANS1:46:251:46:324:52 12.34139765GANSHOREN
47.1588SERCKX Thomas41BELIBM SPORT1:46:541:47:034:54 12.27143758LIBRAMONT
48.1285LUYPAERT Dirk49BELBREDENE SPORT RT1:47:021:47:084:54 12.27145756OOSTENDE
49.1109DELIRE Alain46BELOPTIQUE LAMBOTTE1:47:191:47:264:55 12.23149751AMAY
50.1227JAUMOTTE Laurent41BEL1:47:211:47:394:55 12.21151750MONT
51.1165FOGUENNE Olivier42BELEXPERT-COMPTABLE1:47:471:47:524:56 12.18155744STAVELOT
52.1260LEFEBVRE Nicolas48BELTEMPLEUVE1:47:431:47:544:56 12.18156744LAHAMAIDE
53.294HASSOUTE El Moustafa47BELCSFMYSTERE1:47:521:47:564:56 12.17157743FOREST
54.1456VAN DEN OETELAAR Eric48NLDKNAUS.V. FORTUNA '671:47:521:48:044:57 12.16160741SCHIJNDEL
55.364DEWAIDE Antoni40BEL1:47:511:48:124:57 12.14162741TINLOT
56.818BAUDUIN Didier46BELNACCABW1:48:091:48:174:57 12.14164737UCCLE
57.1362PHILIPPE Stéphane47FRAASM REIMS1:47:461:48:214:57 12.13166739CORMICY
58.1287MAES Thierry44BEL1:48:001:48:264:58 12.12167737ARLON
59.1173GAUSSET Olivier46BELAXA TEAM1:48:261:48:334:58 12.11169731BRUXELLES
60.1380RASKINET Renaud41BEL1:48:411:48:464:58 12.08171728MOXHE
61.1421STEINIER Frédéric40BEL1:48:341:48:464:58 12.08172729VELAINE SUR SAMBRE
62.1564ROSSILLON Luc43BELFCHA1:48:321:48:594:59 12.06175728CHAMPION
63.1344NOBEL Remy45FRACSAR1:49:521:50:045:02 11.94181712
64.1377PUYLAERT Dominique49BELRCNAMUR1:50:181:50:355:03 11.88188705JAMBES
65.1596FRANCOTTE Frédéric Joseph47BEL1:50:221:50:405:04 11.87189704NAMUR
66.1513VAN WAYENBERGH Mario Maurice40BELACG1:50:201:50:445:04 11.87191704HERZELE
67.1443URBAIN Baudouin42BEL1:50:361:50:585:04 11.84193700GOUY-LEZ-PIETON
68.1071CHEVALIER Michaël41BEL1:50:451:50:595:05 11.84194698NIMY
69.1571KYLSTRA Niels45NLD1:50:521:51:095:05 11.82197696IXELLES
70.1283LOUIS Vincent47BELARCH1:51:241:51:285:06 11.79200689CINEY
71.608ROSSI Stephane47BELSC BUTGENBACH1:51:541:51:595:07 11.73206682ROBERTVILLE
72.199ALAIME Sebastien41BELSPTWSPTWAVRE1:51:541:52:065:08 11.72208681LIMAL
73.1420STATSYNS Jean-Francois46BEL1:52:101:52:315:09 11.68210678MÉLIN (JODOIGNE)
74.1195GUILLAUME Pierre49BEL1:51:561:52:325:09 11.68212679GESVES
75.386SIMONS Rudy43BEL1:52:361:53:035:10 11.62221669LOENHOUT
76.1097DEFALQUE Aymeric40BEL1:53:071:53:095:10 11.61222664NAMUR
77.1153EVRARD Didier48BELRUN PRO1:53:011:53:185:11 11.60227663BOIS DE VILLERS
78.337DAMSTEN Thierry49FIN1:53:141:53:335:12 11.57230659RO
79.1268LELEU Laurent43BELTRI4US1:53:211:53:565:13 11.53235656ANHÉE
80.1575MEYS Claude47BELRCA SPA1:53:591:54:075:13 11.52238648HERVE
81.1460VANDEVOORT Dirk47BELDOORENLOPERS MERCHTEM1:53:471:54:075:13 11.51239650MERCHTEM
82.43SEGHIN Vincent48BELESM1:54:501:55:065:16 11.42250635THUIN
83.1236KLEISCH Olivier46FRA1:55:251:55:415:17 11.36254628SEDAN
84.1225JANSSENS Steven40BEL1:56:131:56:225:19 11.29265616HOEILAART
85.1508LINDECKENS Bertrand47BEL1:56:161:56:285:20 11.28266615
86.1368PIRAUX Ludovic40BEL1:55:541:56:415:20 11.26268618BOITSFORT
87.1563VAN LANDUYT Jean Yves49BEL1:56:441:57:125:22 11.21274607
88.1523BERTE Miguel42BEL1:56:561:57:175:22 11.20276605
89.769BONTEMS Christophe41BELSPTWAVRE1:56:371:57:185:22 11.20279606FORVILLE
90.1494HETESI Christophe47FRA1:57:171:57:555:24 11.14282599
91.1218HOYOIS Bernard44BEL1:57:521:58:125:24 11.12285593BAUDOUR
92.695DE DAPPER David40BELCSFMYSTERE1:58:561:58:585:26 11.05293579BRUXELLES
93.1313MATHIEU Didier41FRAASM REIMS1:58:231:59:005:27 11.04295583FISME
94.1405SCHOOLMEESTERS Bart48BELRMR ROTSELAAR1:58:511:59:295:28 11.00306574WILSELE
95.1538MICHAUX Fabrice49BEL1:58:551:59:365:28 10.99309573
96.324CORNET Fabrice44BEL1:59:351:59:575:29 10.96314564TINLOT
97.1408SESTITO Joseph47ITAUACUAC1:59:482:00:045:29 10.94316562MARCINELLE
98.1412SLACHMUYLDERS Marc49BELHARAKA1:59:332:00:095:30 10.94319563HEMIKSEM
99.1524SATTA Constantin49BELVAC2:00:452:01:005:32 10.86329548COUILLET
100.1080CONSEQUENCE Bertrand47BEL2:01:402:01:535:34 10.78342534BOUGNIES
101.1010BACQ Laurent46BEL2:01:352:02:005:35 10.77343534TAMINES
102.1014BARTOSIK Jerome43FRACAL HERLIES2:02:282:02:355:36 10.72350523LOMPRET
103.1461VAN DE VYVERE Pol46BEL2:02:032:02:385:36 10.72351527NOVILLE-LES-BOIS
104.1329MULLER Olivier43BEL2:01:572:02:475:37 10.70355526CHARLEROI
105.1145DUBOIS Eric48FRAASM REIMS2:02:252:03:005:37 10.68357521SAINT BRICE-COURCELLES
106.1438TIXHON Axel41BEL2:02:502:03:235:39 10.65360516DINANT
107.1542LECLERQ Damien42BEL2:02:552:03:485:40 10.61363514
108.56PIERRE Stephane47BELJAMES2:03:262:04:015:40 10.60368507RAMILLIES
109.32JACQUEMIN Patrick48BELFCHA2:03:592:04:075:41 10.59369502HANNUT
110.177HIGUET Pierre49BELJCCS2:03:522:04:145:41 10.58371502VONCHE
111.1246LAMARCHE Marc49BEL2:03:462:04:155:41 10.58372502BEAURAING (PONDROME)
112.1041BOUILLON Jean Marc49BEL2:03:462:04:245:41 10.56376500DINANT
113.1374POLFLIET Koen41BELIMPALA RUNNING TEAM2:04:272:04:385:42 10.54378494WILRIJK
114.1214HOSTIER Nicolas43BELJCQ2:04:362:04:585:43 10.51380492BAISIEUX
115.951KUMMELER Christophe47BELERTK2:04:512:05:075:43 10.50381489WELKENRAEDT
116.1163FLAHAUX Hubert40BEL2:04:432:05:295:44 10.47386488BRUXELLES
117.1077CLOSSET Olivier40BEL2:05:392:05:475:45 10.45389479GILLY
118.1070CHENIAUX Nicolas40BEL2:04:572:05:505:45 10.44390485CINEY
119.1358PERROT Georges46BEL2:05:012:05:555:45 10.44391484TOURNAI
120.1322MONFORT Philippe46BELHAC2:05:382:06:275:47 10.39398475ECAUSSINNES
121.421NAUTS Benoit40BELJCCS2:06:032:06:275:47 10.39399471RIENNE
122.1485VIRNINO Claudio41BELWAVRE2:06:162:06:365:47 10.38402468THOREMBAIS ST TROND
123.1234KAYSER Jean49BEL2:05:592:06:415:48 10.37408468PROFONDEVILLE
124.1241LABENNE Vincent41BEL2:06:012:06:575:48 10.35412466COURCELLES
125.1119DEMIN Michel45BEL2:06:162:07:055:49 10.34414463SOVET
126.1455VANDENHOUCKE Lieven46BEL2:06:512:07:295:50 10.31419456GENT
127.1197HADJ Paul46BEL2:06:462:07:405:50 10.29422455LA LOUVIÈRE
128.1519BISCOS David40BEL2:07:022:07:445:50 10.29423452
129.1161FIN Daniel41FRAASM REIMS2:07:172:07:535:51 10.28425450PRUNAY
130.685LETELLIER Jean Luc48BELMYSTERE2:08:142:08:205:52 10.24432438WAVRE
131.1189GOURDIN Etienne46BEL2:08:292:08:575:54 10.19440433DORINNE
132.974LESOIL Philippe46BELENJAMBEE2:08:262:09:005:54 10.19441433BRUXELLES
133.1202HAUTEKEER Jean-Paul48BEL2:09:232:09:535:56 10.12454419VERLAINE
134.1276LIBOTTE Bernard46BELZATAC2:09:212:10:055:57 10.10459418WANFERCÉE-BAULET
135.1398SANCHEZ Jorge48BEL2:09:232:10:115:57 10.09460417BRUXELLES
136.1316MELIS Giuseppe47ITA2:09:252:10:135:57 10.09461416GHLIN
137.1432TATON Denis47BEL2:09:262:10:275:58 10.07467413BEAUFAYS
138.1472VANNESTE Peter45BELJC GRIMBERGEN2:09:442:10:365:58 10.06472408
139.157ORANGE Tom41BEL2:10:422:11:036:00 10.03478398MONTENAKEN
140.1111DELLASANTA Laurent45FRAEJCAJURA2:11:042:11:316:01 9.99484393SALINS
141.1137DIDION Yannick46FRAREIMS TOUTES JAMBES2:11:062:11:446:01 9.98486391REIMS
142.1428STRUELENS Luc45BELJC GRIMBERGEN2:10:572:11:496:02 9.97487392
143.1110DELLA FAILLE Gilles42BEL2:11:042:11:526:02 9.97488391SCHAERBEEK
144.1578NICOLINI Giovani43BELOTC2:11:402:11:546:02 9.96489385
145.1262LEFEVRE Bernard43BEL2:11:232:12:086:02 9.94491387HAM SUR SAMBRE
146.1037BOGAR Tony49BELLES ZAFTERS2:11:562:12:306:04 9.92495381GRAND-RECHAIN
147.314DEGUELDRE Jean-François41BELGAG2:13:182:13:346:06 9.84507364BOSSIÈRE
148.1339NEYMAN Pascal45BEL2:13:152:13:446:07 9.83508365SAINT-GÉRARD
149.1449VANCOMPERNOLLE Koen48BELTORRAC2:13:462:14:106:08 9.79511359TORHOUT
150.1467VAN HAMMÉE Grégory44BELSWIFT2:14:342:14:496:10 9.75521348OTTIGNIES
151.1255LECLERCQ Laurent49BEL2:14:012:14:516:10 9.74524351BRUXELLES
152.434HENROTTIN Pierre49BEL2:14:382:15:006:10 9.73528345LIMBOURG
153.1048BREITHOF Nicolas49BEL2:14:502:15:276:12 9.70533341LIBIN
154.1129DETROZ Guy49BELJC MONTAGNARD2:14:582:15:286:12 9.70534339MONT-SUR-MARCHIENNE
155.1284LURKIN Joel46BEL2:15:092:15:396:12 9.69535338SAUTIN
156.1505LACASSE Eric45BELRVE DE L'YWOIGNE 222:15:302:15:426:12 9.68536335CHEVETOGNE
157.1567SCIEUR Benoit40BELAXA TEAM2:15:262:15:486:13 9.68539334GERPINNES
158.1516DUBOIS Vincent44BEL2:16:172:17:096:16 9.58547323
159.1527BENDJEFFAL Mourad48FRA2:16:582:17:186:17 9.57548318
160.1248LAMBINET Patrick40BEL2:17:002:17:476:18 9.54555315NAMUR
161.1580FINK Joel44BEL2:17:332:18:056:19 9.52562307
162.1495MATHEVET Alexandre43FRA2:17:552:18:206:19 9.50564304
163.388BUCHET Frederic41BELUSBWCOURS TJ2:18:222:18:526:21 9.46569298LASNE
164.1400SAUVENIER Vincent40BEL2:18:032:18:566:21 9.46572299WAREMME
165.1553GASMANE Dominique46BELSOLIDA'RUN2:18:112:19:006:21 9.45573298LANDELIES
166.1552FRANCOIS Stephane45BELJAMES2:18:092:19:066:22 9.45575297
167.192GEUSKENS Jean Marc49BEL2:18:462:19:266:23 9.42579290BRUXELLES
168.383MAGOTTE Olivier41BELJAMES2:19:502:20:336:26 9.35588278NIVELLES
169.1212HERTOGHS Marc47BEL2:20:032:20:386:26 9.34589276AARTSELAAR
170.1172FRANCUCK Frédéric46BELCSFMYSTERE2:21:022:21:356:28 9.28598265UCCLE
171.1354PARZYSZ Stéphane47BEL2:21:452:21:526:29 9.26599259DOTTIGNIES
172.1146DUFAYS Damien49BEL2:21:412:22:316:31 9.22605257UCCLE
173.1117DEMARET Olivier40BELBAIL RUN2:22:382:23:196:33 9.17613246GODINNE
174.1597DAVID Serge41BEL2:22:442:23:286:34 9.16614245
175.1082CORTVRINT Henri47BEL2:22:572:23:336:34 9.15615243BELOEIL
176.1593VANMECHELEN Tim41BEL2:23:432:23:566:35 9.13619236
177.1559LOOZE Luc49BELENDURANCEASBL.BE2:23:192:24:176:36 9.11622237NIL-SAINT-VINCENT-SAINT-MARTIN
178.330GEUSKENS Nicolas45BELRUN AG PSOR2:23:402:24:206:36 9.10623234WAVRE
179.1331MUREGANCURO Alain49BEL2:24:012:24:496:37 9.07628230MONS
180.1488WATTHY Johan46BELASSA2:25:192:25:356:39 9.03637216GISTEL
181.1278LIÉTART Patrice41BEL2:24:412:25:416:40 9.02638220HASTIÉRE
182.1366PIETERS Lionel42BEL2:25:252:26:276:42 8.97643213FORZÉE
183.1429STUBENER Marc43BEL2:25:262:26:276:42 8.97644212HEMPTINNE
184.1531LANSU Dennis45NLD2:27:112:27:526:46 8.89655195
185.1464VANESSE Jean-Denis47BEL2:29:242:30:086:52 8.75669173MEEFFE
186.1087CROSS Richard46GBRSWIFT2:30:282:30:436:53 8.72679161HOEILAART
187.806VASAUNE Michel48BELFLEU2:30:052:30:556:54 8.71683162JEMEPPE SUR SAMBRE
188.1474VAN ROOIJ Peter48NLDKNAUS.V. FORTUNA '672:31:572:32:166:58 8.63693144SINT-OEDENRODE
189.1029BOBY Michel46FRAEJCAJURA2:32:312:32:587:00 8.59697139SALINS
190.1185GOSSELIN Robert47BELKAA GENT/CAPUCIENEN2:32:432:33:267:01 8.56699136FLOBECQ
191.1430SULEJ Alain43BELU.A.C2:38:302:38:487:16 8.2772287CHATELET
192.432VLAMINCK Thierry43BELUSBWUSBW2:42:052:42:587:27 8.0673558BRAINE L'ALLEUD
193.1590BERNARD Patrice47BEL2:44:522:45:237:34 7.9574336SIVRY-RANCE
194.1498OPDEBEECK Serge47BEL2:46:072:46:557:38 7.8774527
195.1357PAULY Luc48BELARCH3:15:553:17:539:03 6.647561MAFFE
DNF: did not finish; DSQ: disqualified; Speed in km/h
Page: [1]